[[{"header":{"parameterUnit":"m.s-1","parameterCategory":1,"la1":30.2991,"la2":30.254,"lo1":-89.0895,"lo2":-89.0444,"dy":0.0017,"dx":0.0017,"nx":28,"ny":28,"refTime":"2025-02-13T03:00:00:Z","depth":0,"parameterNumber":2,"parameterNumberName":"U-component_of_WINDS"},"data":[0,0,0,0,0,0,0,0,0,0,0,0,0,0,0,0,0,0,0,0,0,0,0,0,0,0,0,0,0,0,0,0,0,0,0,0,0,0,0,0,0,0,0,0,0,0,0,0,0,0,0,0,0,0,0,0,0,0,-1.0594,-1.0594,0,-1.0621,-1.0621,-1.0621,-1.0599,-1.0598,-1.0597,-1.0596,-1.0625,-1.0626,-1.0628,0,0,0,0,0,0,0,0,0,0,0,0,0,-1.0524,-1.0525,-1.0594,-1.0594,-1.0594,-1.0621,-1.0621,-1.0621,-1.0599,-1.0598,-1.0597,-1.0596,-1.0624,-1.0626,-1.0628,0,0,0,0,0,0,0,0,0,0,0,0,0,-1.0553,-1.0525,-1.0594,-1.0586,-1.0586,-1.062,-1.0621,-1.0621,-1.0599,-1.0598,-1.0597,-1.0595,-1.0624,-1.0626,-1.0628,-1.0671,0,0,-1.0636,-1.0637,0,0,0,0,0,0,0,0,-1.0551,-1.0555,-1.0587,-1.0587,-1.0587,-1.0605,-1.0607,-1.0638,-1.06,-1.0594,-1.0596,-1.0595,-1.0619,-1.0622,-1.063,-1.0673,-1.0674,-1.0636,-1.0637,-1.0639,-1.0639,0,0,0,0,0,0,0,-1.0549,-1.0554,-1.0604,-1.0588,-1.0587,-1.0582,-1.0585,-1.0612,-1.0614,-1.0595,-1.0593,-1.0597,-1.0619,-1.0628,-1.0631,-1.0674,-1.0636,-1.0638,-1.064,-1.0641,-1.0753,-1.0755,0,0,0,0,0,0,-1.0548,-1.0552,-1.0604,-1.0605,-1.0565,-1.0584,-1.0587,-1.0601,-1.0614,-1.0615,-1.0598,-1.0595,-1.0624,-1.0628,-1.0632,-1.0683,-1.0639,-1.0641,-1.0642,-1.0752,-1.0754,-1.0755,0,0,0,0,0,0,-1.0546,-1.0552,-1.0602,-1.0578,-1.0584,-1.0587,-1.0602,-1.0602,-1.0611,-1.0616,-1.0617,-1.0607,-1.0623,-1.0628,-1.0662,-1.0684,-1.0642,-1.0644,-1.075,-1.0752,-1.0755,-1.0786,0,0,0,0,0,0,-1.0544,-1.0552,-1.0569,-1.0579,-1.0586,-1.0632,-1.0604,-1.0603,-1.0615,-1.0612,-1.0625,-1.0625,-1.0623,-1.0658,-1.0664,-1.0686,-1.0646,-1.0748,-1.0751,-1.0754,-1.0783,-1.079,-1.0795,0,0,0,0,0,-1.0542,-1.0577,-1.0569,-1.0576,-1.0606,-1.0633,-1.0637,-1.0633,-1.0617,-1.0633,-1.0637,-1.0625,-1.068,-1.0662,-1.0668,-1.0692,-1.0747,-1.075,-1.0754,-1.0781,-1.0788,-1.0795,0,0,0,0,0,0,-1.0569,-1.0578,-1.057,-1.0609,-1.0621,-1.063,-1.0651,-1.0641,-1.0658,-1.0655,-1.0649,-1.0652,-1.0687,-1.0692,-1.0672,-1.0734,-1.0711,-1.0716,-1.0729,-1.0736,-1.0742,-1.074,-1.0648,0,0,0,0,0,-1.058,-1.0601,-1.0607,-1.0641,-1.0647,-1.0648,-1.066,-1.0655,-1.0667,-1.0672,-1.0678,-1.069,-1.071,-1.0723,-1.0742,-1.0784,-1.0786,-1.0803,-1.0808,-1.0813,-1.0818,-1.084,-1.0848,-1.0767,-1.0767,-1.0767,0,0,-1.0602,-1.0609,-1.0623,-1.0647,-1.0655,-1.0678,-1.0652,-1.0677,-1.0693,-1.0676,-1.0708,-1.0712,-1.0725,-1.0763,-1.078,-1.0769,-1.084,-1.0817,-1.0821,-1.0823,-1.0844,-1.0852,-1.0859,-1.0769,-1.0769,-1.0768,0,0,-1.0654,-1.0662,-1.0691,-1.0699,-1.0712,-1.0712,-1.0719,-1.0729,-1.0731,-1.0763,-1.075,-1.077,-1.0804,-1.0814,-1.0823,-1.0878,-1.0868,-1.0884,-1.0914,-1.0936,-1.0942,-1.0948,-1.0968,-1.0975,-1.0888,-1.0888,-1.0889,0,-1.068,-1.0713,-1.0707,-1.0732,-1.0743,-1.0727,-1.0757,-1.0766,-1.0784,-1.0792,-1.0779,-1.0821,-1.0829,-1.0869,-1.0882,-1.089,-1.0898,-1.0883,-1.0942,-1.0947,-1.0953,-1.0971,-1.0979,-1.089,-1.089,-1.089,-1.089,0,-1.0745,-1.0768,-1.079,-1.0807,-1.082,-1.0848,-1.0846,-1.086,-1.0854,-1.0855,-1.0888,-1.0896,-1.0916,-1.0925,-1.092,-1.0964,-1.0956,-1.0942,-1.0919,-1.0962,-1.098,-1.0987,-1.0893,-1.0892,-1.0892,-1.0891,0,0,-1.0816,-1.0829,-1.0838,-1.0845,-1.0858,-1.0875,-1.0902,-1.0921,-1.0933,-1.0946,-1.0968,-1.0997,-1.0984,-1.0995,-1.099,-1.1009,-1.1052,-1.0993,-1.0993,-1.1004,-1.1101,-1.1112,-1.1121,-1.1045,-1.1046,-1.1047,-1.11,0,-1.0869,-1.0915,-1.091,-1.0954,-1.0975,-1.0959,-1.0982,-1.0992,-1.0994,-1.1012,-1.1014,-1.1034,-1.1016,-1.1022,-1.104,-1.1043,-1.1072,-1.1039,-1.1066,-1.1067,-1.1064,-1.113,-1.1142,-1.1192,-1.1107,-1.1108,-1.1109,0,-1.0937,-1.0952,-1.0998,-1.1007,-1.1015,-1.1036,-1.1053,-1.107,-1.1081,-1.1081,-1.1092,-1.1084,-1.1111,-1.1086,-1.1122,-1.11,-1.111,-1.1113,-1.1115,-1.1118,-1.1091,-1.1135,-1.1207,-1.1215,-1.112,-1.1119,-1.1118,0,-1.0986,-1.1017,-1.1048,-1.1055,-1.1066,-1.1081,-1.1086,-1.1096,-1.1107,-1.1122,-1.1129,-1.1147,-1.1157,-1.117,-1.1167,-1.1149,-1.1204,-1.1179,-1.1205,-1.1205,-1.1218,-1.1218,-1.1294,-1.1224,-1.1223,-1.1223,-1.1223,0,-1.1046,-1.1075,-1.107,-1.109,-1.1121,-1.1115,-1.1146,-1.1149,-1.1158,-1.1177,-1.1165,-1.1184,-1.1178,-1.1197,-1.1194,-1.1225,-1.1229,-1.123,-1.1229,-1.1231,-1.1231,-1.1239,-1.1236,-1.1225,-1.1225,-1.1224,-1.1224,0,-1.1106,-1.1104,-1.1137,-1.1144,-1.1147,-1.117,-1.1176,-1.1194,-1.1194,-1.1219,-1.1225,-1.1225,-1.1246,-1.1244,-1.1267,-1.1266,-1.1304,-1.1298,-1.13,-1.1299,-1.1325,-1.1323,-1.1409,-1.142,-1.1342,-1.1343,-1.1344,0,-1.1145,-1.1167,-1.1176,-1.1188,-1.1194,-1.1214,-1.1226,-1.1219,-1.1232,-1.1245,-1.1262,-1.1282,-1.1297,-1.1332,-1.1334,-1.1352,-1.1347,-1.1376,-1.135,-1.1352,-1.1348,-1.1348,-1.135,-1.1382,-1.1383,-1.1383,-1.1384,0,-1.1215,-1.1212,-1.1229,-1.1246,-1.126,-1.1273,-1.1285,-1.1296,-1.129,-1.1305,-1.1326,-1.1338,-1.1362,-1.1382,-1.1398,-1.1404,-1.1393,-1.1392,-1.1399,-1.1402,-1.1403,-1.1403,-1.1315,-1.139,-1.139,-1.1389,-1.1389,-1.1389,-1.1266,-1.1284,-1.1293,-1.1313,-1.1321,-1.1332,-1.1349,-1.1351,-1.1368,-1.1387,-1.1382,-1.1406,-1.1416,-1.1437,-1.1444,-1.1462,-1.1452,-1.1462,-1.1465,-1.1467,-1.1471,-1.1399,-1.1465,-1.1465,-1.1465,-1.1465,-1.1465,0,-1.1335,-1.134,-1.1358,-1.1374,-1.139,-1.1377,-1.1389,-1.1403,-1.1424,-1.1434,-1.1449,-1.1473,-1.1492,-1.1495,-1.1513,-1.1528,-1.1523,-1.1533,-1.1532,-1.1533,-1.1479,-1.1471,-1.1536,-1.1536,-1.1536,-1.1536,-1.1536,-1.1536,-1.1373,-1.1404,-1.1403,-1.1437,-1.1442,-1.1465,-1.1473,-1.1483,-1.149,-1.1518,-1.1533,-1.1535,-1.1542,-1.156,-1.1577,-1.1577,-1.1585,-1.1596,-1.1595,-1.1544,-1.1537,-1.153,-1.1523,-1.1598,-1.1598,-1.1648,-1.1648,-1.1649]},{"header":{"parameterUnit":"m.s-1","parameterCategory":1,"la1":30.2991,"la2":30.254,"lo1":-89.0895,"lo2":-89.0444,"dy":0.0017,"dx":0.0017,"nx":28,"ny":28,"refTime":"2025-02-13T03:00:00:Z","depth":0,"parameterNumber":3,"parameterNumberName":"V-component_of_WINDS"},"data":[0,0,0,0,0,0,0,0,0,0,0,0,0,0,0,0,0,0,0,0,0,0,0,0,0,0,0,0,0,0,0,0,0,0,0,0,0,0,0,0,0,0,0,0,0,0,0,0,0,0,0,0,0,0,0,0,0,0,-7.2898,-7.2898,0,-7.2974,-7.2975,-7.2976,-7.2931,-7.2929,-7.2927,-7.2925,-7.2997,-7.3001,-7.3004,0,0,0,0,0,0,0,0,0,0,0,0,0,-7.2707,-7.2711,-7.2897,-7.2898,-7.2899,-7.2974,-7.2975,-7.2976,-7.2931,-7.2929,-7.2926,-7.2924,-7.2995,-7.3,-7.3005,0,0,0,0,0,0,0,0,0,0,0,0,0,-7.2787,-7.2712,-7.2897,-7.2886,-7.2886,-7.2974,-7.2975,-7.2976,-7.2932,-7.2929,-7.2926,-7.2923,-7.2994,-7.3,-7.3005,-7.3106,0,0,-7.3023,-7.3026,0,0,0,0,0,0,0,0,-7.2783,-7.2794,-7.2887,-7.2887,-7.2887,-7.294,-7.2934,-7.302,-7.2933,-7.2914,-7.2925,-7.2921,-7.298,-7.2987,-7.3008,-7.311,-7.3113,-7.3024,-7.3027,-7.303,-7.3032,0,0,0,0,0,0,0,-7.2777,-7.2791,-7.2928,-7.2888,-7.2889,-7.2876,-7.2884,-7.295,-7.2964,-7.2916,-7.2913,-7.2923,-7.2979,-7.3002,-7.3009,-7.3114,-7.3024,-7.3029,-7.3033,-7.3035,-7.3303,-7.3307,0,0,0,0,0,0,-7.2773,-7.2786,-7.2925,-7.293,-7.2826,-7.2882,-7.2891,-7.2926,-7.2963,-7.2966,-7.2925,-7.292,-7.2994,-7.3003,-7.3012,-7.3133,-7.303,-7.3035,-7.3039,-7.33,-7.3304,-7.3308,0,0,0,0,0,0,-7.2769,-7.2786,-7.2922,-7.2858,-7.2874,-7.2889,-7.2929,-7.2929,-7.2952,-7.2971,-7.2972,-7.2947,-7.2992,-7.3003,-7.3084,-7.3135,-7.3038,-7.3043,-7.3295,-7.3301,-7.3306,-7.3377,0,0,0,0,0,0,-7.2764,-7.2785,-7.2825,-7.2859,-7.2878,-7.2995,-7.2932,-7.2933,-7.2964,-7.2958,-7.2991,-7.2994,-7.299,-7.3075,-7.309,-7.3141,-7.3048,-7.3291,-7.3298,-7.3304,-7.337,-7.3384,-7.3396,0,0,0,0,0,-7.2758,-7.284,-7.2827,-7.2844,-7.2928,-7.2998,-7.3008,-7.3004,-7.2968,-7.3007,-7.3019,-7.2993,-7.3127,-7.3084,-7.31,-7.3154,-7.3288,-7.3296,-7.3304,-7.3364,-7.3381,-7.3396,0,0,0,0,0,0,-7.2808,-7.2844,-7.283,-7.2926,-7.296,-7.299,-7.3039,-7.3022,-7.3065,-7.3057,-7.3049,-7.3057,-7.3141,-7.3155,-7.3106,-7.3254,-7.3201,-7.3213,-7.3242,-7.3258,-7.3271,-7.3266,-7.3053,0,0,0,0,0,-7.2831,-7.2887,-7.2914,-7.2996,-7.3014,-7.3024,-7.3054,-7.3049,-7.3082,-7.3096,-7.3113,-7.3145,-7.3195,-7.3227,-7.3273,-7.3372,-7.3378,-7.3417,-7.343,-7.3441,-7.3451,-7.3504,-7.3522,-7.3334,-7.3334,-7.3334,0,0,-7.2878,-7.2904,-7.2939,-7.3007,-7.3033,-7.3089,-7.3036,-7.3098,-7.314,-7.3104,-7.3182,-7.3196,-7.3231,-7.3322,-7.3362,-7.3336,-7.3504,-7.3451,-7.3459,-7.3464,-7.3515,-7.3532,-7.3548,-7.334,-7.3339,-7.3338,0,0,-7.2992,-7.3018,-7.309,-7.3118,-7.3158,-7.3164,-7.3182,-7.3216,-7.3225,-7.3303,-7.3278,-7.3327,-7.3412,-7.3438,-7.3463,-7.359,-7.3567,-7.3605,-7.3673,-7.3725,-7.374,-7.3753,-7.3799,-7.3816,-7.3615,-7.3615,-7.3615,0,-7.3044,-7.3131,-7.3128,-7.3194,-7.3224,-7.3198,-7.327,-7.3296,-7.3348,-7.3369,-7.334,-7.3448,-7.3469,-7.3566,-7.3597,-7.3618,-7.3637,-7.3601,-7.3739,-7.3752,-7.3764,-7.3807,-7.3825,-7.362,-7.3619,-7.3619,-7.3618,0,-7.3194,-7.3255,-7.3308,-7.3363,-7.3399,-7.3467,-7.3473,-7.351,-7.3502,-7.3511,-7.3592,-7.3617,-7.3669,-7.3691,-7.3682,-7.3787,-7.377,-7.374,-7.3687,-7.3786,-7.3827,-7.3844,-7.3626,-7.3624,-7.3623,-7.3622,0,0,-7.3341,-7.3396,-7.3415,-7.3441,-7.3484,-7.353,-7.3596,-7.365,-7.3682,-7.3719,-7.3774,-7.3848,-7.3822,-7.385,-7.3844,-7.389,-7.399,-7.3854,-7.3855,-7.3879,-7.4107,-7.413,-7.4149,-7.3976,-7.3979,-7.3981,-7.4105,0,-7.3459,-7.3579,-7.3579,-7.3689,-7.3745,-7.3721,-7.378,-7.3812,-7.3823,-7.387,-7.3881,-7.3934,-7.3894,-7.3911,-7.3956,-7.3969,-7.4036,-7.396,-7.4026,-7.4028,-7.4018,-7.4171,-7.4194,-7.4309,-7.4121,-7.4123,-7.4125,0,-7.3612,-7.3658,-7.3774,-7.3812,-7.3835,-7.3888,-7.3937,-7.3984,-7.4019,-7.4024,-7.4057,-7.4044,-7.4111,-7.4057,-7.4148,-7.4096,-7.4123,-7.4134,-7.4138,-7.4144,-7.4083,-7.4181,-7.4346,-7.4363,-7.415,-7.4148,-7.4146,0,-7.3709,-7.3799,-7.3881,-7.3903,-7.3948,-7.3986,-7.4006,-7.4039,-7.4072,-7.4114,-7.4135,-7.4184,-7.4211,-7.4249,-7.4249,-7.4209,-7.4342,-7.4287,-7.4347,-7.4347,-7.4375,-7.4374,-7.4548,-7.4393,-7.4393,-7.4392,-7.4392,0,-7.384,-7.3912,-7.3925,-7.3976,-7.4056,-7.4055,-7.4133,-7.415,-7.418,-7.4232,-7.4213,-7.4262,-7.426,-7.4309,-7.4309,-7.4386,-7.4397,-7.4402,-7.4401,-7.4404,-7.4404,-7.4421,-7.4414,-7.4397,-7.4396,-7.4395,-7.4394,0,-7.3961,-7.3973,-7.4061,-7.4098,-7.4109,-7.4166,-7.4196,-7.4244,-7.4254,-7.432,-7.4335,-7.435,-7.4407,-7.4412,-7.4476,-7.4477,-7.4569,-7.456,-7.4558,-7.4557,-7.4616,-7.4611,-7.4808,-7.4834,-7.4662,-7.4664,-7.4665,0,-7.4044,-7.41,-7.4144,-7.4179,-7.4203,-7.4258,-7.4293,-7.4294,-7.433,-7.4376,-7.4418,-7.4474,-7.4519,-7.461,-7.4626,-7.4676,-7.4667,-7.4733,-7.4674,-7.4675,-7.4668,-7.4665,-7.4671,-7.4744,-7.4746,-7.4747,-7.4748,0,-7.4191,-7.4195,-7.4247,-7.4301,-7.4343,-7.4385,-7.4424,-7.4453,-7.4459,-7.4501,-7.456,-7.4595,-7.4664,-7.4719,-7.4769,-7.4787,-7.4769,-7.4767,-7.4784,-7.4787,-7.4784,-7.4787,-7.459,-7.4762,-7.4761,-7.476,-7.4759,-7.4759,-7.4296,-7.4345,-7.4385,-7.4443,-7.4474,-7.4511,-7.4558,-7.4576,-7.4626,-7.4684,-7.4681,-7.4747,-7.4782,-7.4847,-7.4869,-7.492,-7.4897,-7.4921,-7.4927,-7.4933,-7.4939,-7.4776,-7.4928,-7.4928,-7.4928,-7.4927,-7.4927,0,-7.4442,-7.4468,-7.4522,-7.4579,-7.4625,-7.4607,-7.465,-7.4689,-7.4748,-7.4783,-7.4829,-7.4898,-7.4952,-7.4973,-7.5025,-7.5062,-7.5055,-7.5075,-7.5072,-7.5077,-7.4956,-7.4937,-7.508,-7.508,-7.508,-7.508,-7.508,-7.508,-7.4524,-7.4607,-7.4615,-7.4713,-7.4736,-7.4803,-7.483,-7.4864,-7.4892,-7.4971,-7.5018,-7.5032,-7.5061,-7.5116,-7.5165,-7.5169,-7.5189,-7.5214,-7.5215,-7.5101,-7.5085,-7.5071,-7.5053,-7.5218,-7.5218,-7.5331,-7.5332,-7.5333]}]]